THORAD AGENA D DEB

Satellite information

Favourite Embed

Satellite Type and Status

DEBRISIN ORBIT

Key statistics

Satellite THORAD AGENA D DEB at a glance.

Uptime

20123

Days in orbit

Revolutions

≈ 13.7

Per day

Orbit

SSO

Sun Synchronous Orbit

Inclination

100.1

Latest

Satellite identification and parameters

Extended collection of information and parameters for THORAD AGENA D DEB.

Object identification

Identified? True

Debris? True

Object name: THORAD AGENA D DEB

International designator: 1970-025QG

Object number (NORAD): 21721

Object ID (CCSDS): 21721

Country: UNITED STATES OF AMERICA (US)

Current information (Y/N): Y

RCS size: SMALL

Orbital parameters

Period: 105.089 minutes

Inclination: 100.0895 deg

SMA: 7376.761 km

Apoapsis: 1000.75 km

Periapsis: 996.501 km

RAAN: 56.8095 deg

Eccentricy: 0.000288

Argument of periapsis: 207.99 deg

Mean anomaly: 303.9495 deg

Mean motion: 13.70263884 rev/day

Mean motion (dot): 0.00001363 rev/day2

B* drag term: 0.0015997 1/REarth

Two-line elements (TLE)

Creation date: May 10, 2025, 5:27 p.m.

Reference frame: TEME

Reference center: EARTH

Epoch: May 10, 2025, 7:14 a.m. UTC

TLE line 0: 0 THORAD AGENA D DEB

TLE line 1: 1 21721U 70025QG 25130.30171266 .00001363 00000-0 15997-2 0 9990

TLE line 2: 2 21721 100.0895 56.8095 0002880 207.9900 303.9495 13.70263884669002

Live tracking on map

Real-time ground track for satellite THORAD AGENA D DEB.

In-orbit conjunctions

A list of the most updated potential collisions computed for object THORAD AGENA D DEB.

Target Orbit TCA Probability of collision Miss distance Type
COSMOS 2173 LEO 2024-12-02 00:48:18 0.0001004653 351.0 (m) PAYLOAD
THORAD AGENA D DEB SSO 2024-11-14 13:54:54 0.002016388 88.0 (m) DEBRIS

Associated space launch

Meteorological research and development satellite

THORAD AGENA D DEB was lifted into orbit during the mission ‘Thorad SLV-2G Agena D | Nimbus 4’, on board a Thorad SLV-2G Agena D space rocket.

The launch took place on April 8, 1970, 8:17 a.m. from Space Launch Complex 2E.

For more information about the launch, click the button.

Launch to space Thorad SLV-2G Agena D | Nimbus 4
Thorad SLV-2G Agena D | Nimbus 4

Agency: N/A

Status: Launch Successful

Launch date: April 8, 1970, 8:17 a.m. UTC

Rocket: Thorad SLV-2G Agena D

Launch pad: Space Launch Complex 2E

Location: Vandenberg SFB, CA, USA

...

Latest news about this satellite

There are no fresh news available about this satellite. Check back as we update our databases every day.


Newsletter sign-up

Weekly statistics, charts and insights to help you stay on top of the space industry.